Tracking 18942 objects as of 18-Jan-2018
HD Live streaming from Space Station
objects crossing your sky now

IRIDIUM 75

Track IRIDIUM 75 now!
10-day predictions
IRIDIUM 75 is classified as:


NORAD ID: 25346
Int'l Code: 1998-032E
Perigee: 783.3 km
Apogee: 786.3 km
Inclination: 86.4 °
Period: 100.4 minutes
Semi major axis: 7155 km
RCS: 4.0637 m2 (large)
Launch date: May 17, 1998
Source: United States (US)
Launch site: AIR FORCE WESTERN TEST RANGE (AFWTR)
aabbcc
Your satellite tracking list
Your tracking list is empty




NASA's NSSDC Master Catalog

Two Line Element Set (TLE):
1 25346U 98032E   18017.39026420  .00000157  00000-0  48918-4 0  9992
2 25346  86.3990 134.6419 0002119  96.3423 263.8014 14.34219717 30371
Source of the keplerian elements: AFSPC